New York, NY

3:55 AM EST on December 11, 2019 (GMT -0500)
La Guardia

Weather History for KLGA - October, 2019

Change the Weather History Date:

Wednesday, October 16, 2019

  Actual Average Record
Temperature  
Mean Temperature 61 °F 58 °F  
Max Temperature 67 °F 65 °F 82 °F (1958)
Min Temperature 54 °F 51 °F 39 °F (2009)
Degree Days  
Heating Degree Days 4 8  
Month to date heating degree days 54 89  
Since 1 July heating degree days 57 124  
Cooling Degree Days 0 0  
Month to date cooling degree days 29 20  
Year to date cooling degree days 1484 1210  
Growing Degree Days 10 (Base 50)    
Moisture  
Dew Point 54 °F    
Average Humidity 74    
Maximum Humidity 87    
Minimum Humidity 60    
Precipitation  
Precipitation 1.71 in 0.12 in 1.71 in (2019)
Month to date precipitation 2.76 2.00  
Year to date precipitation 39.24 35.98  
Snow  
Snow 0.00 in 0.00 in - ()
Month to date snowfall 0.0 0.0  
Since 1 July snowfall 0.0 0.0  
Snow Depth 0.00 in    
Sea Level Pressure  
Sea Level Pressure 29.62 in    
Wind  
Wind Speed 16 mph (ESE)    
Max Wind Speed 43 mph    
Max Gust Speed 55 mph    
Visibility 7 miles    
Events Rain    
T = Trace of Precipitation, MM = Missing Value Source: NWS Daily Summary

Daily Weather History Graph

Daily Weather History Graph

Search for Another Location

Airport or City:

Astronomy

Oct. 16, 2019 Rise Set
Actual Time 7:07 AM EDT 6:13 PM EDT
Civil Twilight 6:39 AM EDT 6:41 PM EDT
Nautical Twilight 6:08 AM EDT 7:13 PM EDT
Astronomical Twilight 5:36 AM EDT 7:45 PM EDT
Moon 8:04 PM EDT (10/16) 9:36 AM EDT (10/16)
Length of Visible Light 12h 01m
Length of Day
11h 06m
Waning Gibbous, 93% of the Moon is Illuminated
Oct 16
Waning Gibbous
Oct 21
Last Quarter
Oct 27
New
Nov 4
First Quarter
Nov 12
Full

Hourly Weather History & Observations

Time (EDT) Temp. Dew Point Humidity Pressure Visibility Wind Dir Wind Speed Gust Speed Precip Events Conditions
12:51 AM 57.9 °F 46.9 °F 67% 30.07 in 10.0 mi SE 5.8 mph - N/A   Partly Cloudy
1:51 AM 57.0 °F 46.0 °F 67% 30.06 in 10.0 mi SE 4.6 mph - N/A   Partly Cloudy
2:51 AM 55.9 °F 46.0 °F 69% 30.04 in 10.0 mi East 3.5 mph - N/A   Partly Cloudy
3:51 AM 55.0 °F 46.0 °F 72% 30.02 in 10.0 mi East 4.6 mph - N/A   Partly Cloudy
4:51 AM 55.0 °F 46.9 °F 74% 30.00 in 10.0 mi ESE 5.8 mph - N/A   Scattered Clouds
5:51 AM 57.0 °F 46.0 °F 67% 29.99 in 10.0 mi SE 11.5 mph - N/A   Mostly Cloudy
6:51 AM 57.0 °F 44.1 °F 62% 29.98 in 10.0 mi SE 9.2 mph - N/A   Mostly Cloudy
7:51 AM 57.9 °F 46.0 °F 65% 29.95 in 10.0 mi ESE 11.5 mph - N/A   Mostly Cloudy
8:51 AM 60.1 °F 46.9 °F 62% 29.94 in 10.0 mi SE 15.0 mph - N/A   Mostly Cloudy
9:39 AM 62.1 °F 48.9 °F 62% 29.92 in 10.0 mi SE 9.2 mph - N/A   Overcast
9:51 AM 64.0 °F 51.1 °F 63% 29.91 in 10.0 mi ESE 9.2 mph - N/A   Overcast
10:24 AM 64.9 °F 54.0 °F 68% 29.88 in 10.0 mi SE 13.8 mph - N/A   Overcast
10:51 AM 64.9 °F 55.0 °F 70% 29.86 in 10.0 mi SE 17.3 mph 26.5 mph N/A   Overcast
11:51 AM 66.0 °F 55.9 °F 70% 29.82 in 10.0 mi SE 18.4 mph 26.5 mph N/A   Overcast
12:51 PM 66.0 °F 55.9 °F 70% 29.78 in 10.0 mi SE 17.3 mph 25.3 mph N/A   Overcast
1:51 PM 66.0 °F 55.9 °F 70% 29.72 in 10.0 mi SE 18.4 mph 33.4 mph N/A   Overcast
2:31 PM 66.9 °F 57.0 °F 70% 29.68 in 10.0 mi SE 17.3 mph 29.9 mph 0.00 in Rain Light Rain
2:51 PM 64.9 °F 57.9 °F 78% 29.68 in 5.0 mi SE 19.6 mph 27.6 mph 0.05 in Rain Light Rain
3:31 PM 64.0 °F 57.9 °F 80% 29.64 in 5.0 mi ESE 16.1 mph 23.0 mph 0.08 in Rain Light Rain
3:51 PM 64.9 °F 59.0 °F 81% 29.63 in 5.0 mi ESE 17.3 mph 27.6 mph 0.11 in Rain Light Rain
4:51 PM 64.0 °F 57.9 °F 80% 29.57 in 8.0 mi ESE 13.8 mph 21.9 mph 0.04 in Rain Light Rain
5:19 PM 64.0 °F 59.0 °F 84% 29.52 in 5.0 mi East 18.4 mph - 0.05 in Rain Rain
5:31 PM 64.0 °F 59.0 °F 84% 29.52 in 2.0 mi ESE 16.1 mph 24.2 mph 0.07 in Rain Heavy Rain
5:51 PM 64.0 °F 59.0 °F 84% 29.50 in 2.0 mi ESE 19.6 mph 32.2 mph 0.25 in Rain Heavy Rain
6:51 PM 63.0 °F 57.9 °F 84% 29.42 in 2.0 mi ESE 23.0 mph 33.4 mph 0.60 in Rain Heavy Rain
7:48 PM 62.6 °F 57.2 °F 82% 29.31 in 2.5 mi ESE 20.7 mph 31.1 mph 0.32 in Rain Rain
7:51 PM 63.0 °F 57.9 °F 84% 29.30 in 2.5 mi ESE 23.0 mph 31.1 mph 0.34 in Rain Rain
8:01 PM 63.0 °F 57.9 °F 84% 29.29 in 2.5 mi ESE 20.7 mph - 0.03 in Rain Rain
8:51 PM 63.0 °F 57.9 °F 84% 29.20 in 2.5 mi ESE 26.5 mph 38.0 mph 0.15 in Rain Rain
9:21 PM 64.9 °F 60.1 °F 84% 29.15 in 2.5 mi ESE 21.9 mph 32.2 mph 0.07 in Rain Light Rain
10:13 PM 66.0 °F 61.0 °F 84% 29.11 in 10.0 mi SE 11.5 mph 20.7 mph 0.00 in Rain Light Rain
10:28 PM 64.0 °F 60.1 °F 87% 29.10 in 4.0 mi WSW 10.4 mph - 0.08 in Rain Light Rain
10:44 PM 61.0 °F 57.0 °F 87% 29.12 in 4.0 mi WNW 27.6 mph 42.6 mph 0.08 in Rain Light Rain
10:51 PM 60.1 °F 55.9 °F 86% 29.13 in 3.0 mi WNW 31.1 mph 48.3 mph 0.08 in Rain Light Rain
11:27 PM 57.0 °F 50.0 °F 77% 29.18 in 10.0 mi WNW 35.7 mph 55.2 mph 0.00 in   Overcast
11:46 PM 55.4 °F 48.2 °F 77% 29.20 in 10.0 mi WNW 31.1 mph 49.5 mph 0.00 in Rain Light Rain
11:51 PM 55.0 °F 48.0 °F 77% 29.21 in 8.0 mi WNW 26.5 mph 44.9 mph 0.00 in Rain Light Rain